Weather History for KFSM - May, 2012

Change the Weather History Date:

Friday, May 18, 2012

  Actual Average Record
Temperature  
Mean Temperature 77 °F 70 °F  
Max Temperature 90 °F 81 °F 95 °F (1956)
Min Temperature 63 °F 60 °F 41 °F (1976)
Cooling Degree Days 12 6  
Month to date cooling degree days 160 79  
Year to date cooling degree days 387 145  
Growing Degree Days 26 (Base 50)    
Moisture  
Dew Point 57 °F    
Average Humidity 54    
Maximum Humidity 78    
Minimum Humidity 29    
Precipitation  
Precipitation 0.00 in 0.18 in 2.74 in (1960)
Month to date precipitation 0.58 3.23  
Year to date precipitation 18.23 16.95  
Sea Level Pressure  
Sea Level Pressure 29.90 in    
Wind  
Wind Speed 6 mph (SE)    
Max Wind Speed 16 mph    
Max Gust Speed 21 mph    
Visibility 10 miles    
Events      
T = Trace of Precipitation, MM = Missing Value Source: NWS Daily Summary

Daily Weather History Graph

Daily Weather History Graph

Search for Another Location

Airport or City:

Trip Planner

Search our weather history database for the weather conditions in past years. The results will help you decide how hot, cold, wet, or windy it might be!

Date:

Astronomy

May. 18, 2012 Rise Set
Actual Time 6:10 AM CDT 8:17 PM CDT
Civil Twilight 5:42 AM CDT 8:46 PM CDT
Nautical Twilight 5:07 AM CDT 9:21 PM CDT
Astronomical Twilight 4:29 AM CDT 9:58 PM CDT
Moon 4:36 AM CDT (5/18) 6:29 PM CDT (5/18)
Length of Visible Light 15h 04m
Length of Day
14h 07m
Waning Crescent, 5% of the Moon is Illuminated
May 18
Waning Crescent
May 20
New
May 28
First Quarter
Jun 4
Full
Jun 11
Last Quarter

Hourly Weather History & Observations

Time (CDT) Temp. Heat Index Dew Point Humidity Pressure Visibility Wind Dir Wind Speed Gust Speed Precip Events Conditions
12:53 AM 70.0 °F - 60.1 °F 71% 29.92 in 10.0 mi Calm Calm - N/A   Clear
1:53 AM 69.1 °F - 59.0 °F 70% 29.92 in 10.0 mi ENE 3.5 mph - N/A   Clear
2:53 AM 68.0 °F - 57.9 °F 70% 29.92 in 10.0 mi NE 3.5 mph - N/A   Mostly Cloudy
3:53 AM 66.9 °F - 59.0 °F 76% 29.92 in 10.0 mi ENE 3.5 mph - N/A   Clear
4:53 AM 64.9 °F - 57.0 °F 75% 29.92 in 10.0 mi ENE 5.8 mph - N/A   Clear
5:53 AM 64.0 °F - 57.0 °F 78% 29.92 in 10.0 mi NE 3.5 mph - N/A   Clear
6:53 AM 64.9 °F - 57.9 °F 78% 29.94 in 10.0 mi Calm Calm - N/A   Clear
7:53 AM 69.1 °F - 57.0 °F 65% 29.95 in 10.0 mi ENE 8.1 mph - N/A   Clear
8:53 AM 73.0 °F - 57.0 °F 57% 29.95 in 10.0 mi ENE 5.8 mph - N/A   Clear
9:53 AM 78.1 °F - 59.0 °F 52% 29.94 in 10.0 mi Variable 4.6 mph - N/A   Clear
10:53 AM 82.9 °F 83.2 °F 60.1 °F 46% 29.94 in 10.0 mi Calm Calm - N/A   Clear
11:53 AM 87.1 °F 85.9 °F 57.0 °F 36% 29.94 in 10.0 mi SE 5.8 mph - N/A   Partly Cloudy
12:53 PM 88.0 °F 86.1 °F 55.0 °F 32% 29.92 in 10.0 mi SSE 10.4 mph 17.3 mph N/A   Clear
1:53 PM 89.1 °F 86.7 °F 53.1 °F 29% 29.90 in 10.0 mi South 12.7 mph - N/A   Clear
2:53 PM 90.0 °F 87.7 °F 54.0 °F 29% 29.88 in 10.0 mi SSE 8.1 mph - N/A   Clear
3:53 PM 90.0 °F 87.9 °F 55.0 °F 30% 29.86 in 10.0 mi South 10.4 mph - N/A   Clear
4:53 PM 90.0 °F 87.5 °F 53.1 °F 28% 29.85 in 10.0 mi South 11.5 mph - N/A   Clear
5:53 PM 89.1 °F 86.7 °F 53.1 °F 29% 29.84 in 10.0 mi South 13.8 mph 20.7 mph N/A   Clear
6:53 PM 87.1 °F 85.3 °F 55.0 °F 33% 29.83 in 10.0 mi South 11.5 mph 17.3 mph N/A   Clear
7:53 PM 84.0 °F 82.9 °F 55.0 °F 37% 29.83 in 10.0 mi South 6.9 mph - N/A   Clear
8:53 PM 81.0 °F 80.7 °F 55.0 °F 41% 29.85 in 10.0 mi Calm Calm - N/A   Clear
9:53 PM 78.1 °F - 55.9 °F 46% 29.87 in 10.0 mi Calm Calm - N/A   Clear
10:53 PM 75.0 °F - 57.0 °F 53% 29.88 in 10.0 mi Calm Calm - N/A   Clear
11:53 PM 72.0 °F - 57.9 °F 61% 29.89 in 10.0 mi Calm Calm - N/A   Clear